QPF
0.00 0.00 0.00 0.00 0.01 0.01 0.00 0.01 0.01 0.00 0.00 0.00 0.00 0.00 0.00 0.00 0.00 0.00 0.00 0.00 0.00 0.00 0.00 0.00 0.00 0.00 0.00 0.00 0.00 0.00 0.00 0.00 0.00 0.00 0.00 0.00 0.00 0.00 0.00 0.00 0.00 0.00 0.00 0.00 0.00 0.00 0.00 0.00 0.00 0.00 0.00 0.00 0.00 0.00 0.00 0.00 0.00 0.00 0.00 0.00 0.00 0.00
0.00 0.00 0.00 0.00 0.01 0.00 0.02 0.01 0.00 0.00 0.00 0.00 0.00 0.00 0.00 0.00 0.00 0.00 0.00 0.00 0.00 0.00 0.00 0.00 0.00 0.00 0.00 0.00 0.00 0.00 0.00 0.00 0.00 0.00 0.00 0.00 0.00 0.00 0.00 0.00 0.00 0.00 0.00 0.00 0.00 0.00 0.00 0.00 0.00 0.00 0.00 0.00 0.00 0.00 0.00 0.00 0.00 0.00 0.00 0.00 0.00 0.00
0.00 0.00 0.00 0.00 0.00 0.01 0.00 0.00 0.00 0.00 0.00 0.00 0.00 0.00 0.00 0.00 0.00 0.00 0.00 0.00 0.00 0.00 0.00 0.00 0.00 0.00 0.00 0.00 0.00 0.00 0.00 0.00 0.00 0.00 0.00 0.00 0.00 0.00 0.00 0.00 0.00 0.00 0.00 0.00 0.00 0.00 0.00 0.00 0.00 0.00 0.00 0.00 0.00 0.00 0.00 0.00 0.00 0.00 0.00 0.00 0.00 0.00
0.00 0.00 0.00 0.00 0.00 0.00 0.00 0.00 0.00 0.00 0.00 0.00 0.00 0.00 0.00 0.00 0.00 0.00 0.00 0.00 0.00 0.00 0.00 0.00 0.00 0.00 0.00 0.00 0.00 0.00 0.00 0.00 0.00 0.00 0.00 0.00 0.00 0.00 0.00 0.00 0.00 0.00 0.00 0.00 0.00 0.00 0.00 0.00 0.00 0.00 0.00 0.00 0.00 0.00 0.00 0.00 0.00 0.00 0.00 0.00 0.00 0.00
0.00 0.00 0.00 0.00 0.00 0.00 0.00 0.00 0.00 0.00 0.00 0.00 0.00 0.00 0.00 0.00 0.00 0.00 0.00 0.00 0.00 0.00 0.00 0.00 0.00 0.00 0.00 0.00 0.00 0.00 0.00 0.00 0.00 0.00 0.00 0.00 0.00 0.00 0.00 0.00 0.00 0.00 0.00 0.00 0.00 0.00 0.00 0.00 0.00 0.00 0.00 0.00 0.00 0.00 0.00 0.00 0.00 0.00 0.00 0.00 0.00 0.00
0.00 0.00 0.00 0.00 0.00 0.00 0.00 0.00 0.00 0.00 0.00 0.00 0.00 0.00 0.00 0.00 0.00 0.00 0.00 0.00 0.00 0.00 0.00 0.00 0.00 0.00 0.00 0.00 0.00 0.00 0.00 0.00 0.00 0.00 0.00 0.00 0.00 0.00 0.00 0.00 0.00 0.00 0.00 0.00 0.00 0.00 0.00 0.00 0.00 0.00 0.00 0.00 0.00 0.00 0.00 0.00 0.00 0.00 0.00 0.00 0.00 0.00
0.00 0.00 0.00 0.00 0.00 0.00 0.00 0.00 0.00 0.00 0.00 0.00 0.00 0.00 0.00 0.00 0.00 0.00 0.00 0.00 0.00 0.00 0.00 0.00 0.00 0.00 0.00 0.00 0.00 0.00 0.00 0.00 0.00 0.00 0.00 0.00 0.00 0.00 0.00 0.00 0.00 0.00 0.00 0.00 0.00 0.00 0.00 0.00 0.00 0.00 0.00 0.00 0.00 0.00 0.00 0.00 0.00 0.00 0.00 0.00 0.00 0.00
0.00 0.00 0.00 0.00 0.00 0.00 0.00 0.00 0.00 0.00 0.00 0.00 0.00 0.00 0.00 0.00 0.00 0.00 0.00 0.00 0.00 0.00 0.00 0.00 0.00 0.00 0.00 0.00 0.00 0.00 0.00 0.00 0.00 0.00 0.00 0.00 0.00 0.00 0.00 0.00 0.00 0.00 0.00 0.00 0.00 0.00 0.00 0.00 0.00 0.00 0.00 0.00 0.00 0.00 0.00 0.00 0.00 0.00 0.00 0.00 0.00 0.00
0.00 0.00 0.00 0.00 0.00 0.00 0.00 0.00 0.00 0.00 0.00 0.00 0.00 0.00 0.00 0.00 0.00 0.00 0.00 0.00 0.00 0.00 0.00 0.00 0.00 0.00 0.00 0.00 0.00 0.00 0.00 0.00 0.00 0.00 0.00 0.00 0.00 0.00 0.00 0.00 0.00 0.00 0.00 0.00 0.00 0.00 0.00 0.00 0.00 0.00 0.00 0.00 0.00 0.00 0.00 0.00 0.00 0.00 0.00 0.00 0.00 0.00
0.11 0.01 0.00 0.00 0.00 0.00 0.00 0.00 0.00 0.00 0.00 0.00 0.00 0.00 0.00 0.00 0.00 0.00 0.00 0.00 0.00 0.00 0.00 0.00 0.00 0.00 0.00 0.00 0.00 0.00 0.00 0.00 0.00 0.00 0.00 0.00 0.00 0.00 0.00 0.00 0.00 0.00 0.00 0.00 0.00 0.00 0.00 0.00 0.00 0.00 0.00 0.00 0.00 0.00 0.00 0.00 0.00 0.00 0.00 0.00 0.00 0.00
0.21 0.02 0.04 0.01 0.00 0.00 0.00 0.00 0.00 0.00 0.00 0.00 0.00 0.00 0.00 0.00 0.00 0.00 0.00 0.00 0.00 0.00 0.00 0.00 0.00 0.00 0.00 0.00 0.00 0.00 0.00 0.00 0.00 0.00 0.00 0.00 0.00 0.00 0.00 0.00 0.00 0.00 0.00 0.00 0.00 0.00 0.00 0.00 0.00 0.00 0.00 0.00 0.00 0.00 0.00 0.00 0.00 0.00 0.00 0.00 0.00 0.00
0.34 0.13 0.11 0.03 0.00 0.00 0.00 0.00 0.00 0.00 0.00 0.00 0.00 0.00 0.00 0.00 0.00 0.00 0.00 0.00 0.00 0.00 0.00 0.00 0.00 0.00 0.00 0.00 0.00 0.00 0.00 0.00 0.00 0.00 0.00 0.00 0.00 0.00 0.00 0.00 0.00 0.00 0.00 0.00 0.00 0.00 0.00 0.00 0.00 0.00 0.00 0.00 0.00 0.00 0.00 0.00 0.00 0.00 0.00 0.00 0.00 0.00
0.10 0.05 0.00 0.00 0.00 0.00 0.00 0.00 0.00 0.00 0.00 0.00 0.00 0.00 0.00 0.00 0.00 0.00 0.00 0.00 0.00 0.00 0.00 0.00 0.00 0.00 0.00 0.00 0.00 0.00 0.00 0.00 0.00 0.00 0.00 0.00 0.00 0.00 0.00 0.00 0.00 0.00 0.00 0.00 0.00 0.00 0.00 0.00 0.00 0.00 0.00 0.00 0.00 0.00 0.00 0.00 0.00 0.00 0.00 0.00 0.00 0.00
0.01 0.01 0.00 0.00 0.00 0.00 0.00 0.00 0.00 0.00 0.00 0.00 0.00 0.00 0.00 0.00 0.00 0.00 0.00 0.00 0.03 0.02 0.01 0.00 0.00 0.00 0.00 0.00 0.00 0.00 0.00 0.00 0.00 0.00 0.00 0.00 0.00 0.00 0.00 0.00 0.00 0.00 0.00 0.00 0.00 0.00 0.00 0.00 0.00 0.00 0.00 0.00 0.00 0.00 0.00 0.00 0.00 0.00 0.00 0.00 0.00 0.00
0.00 0.00 0.00 0.00 0.00 0.00 0.00 0.00 0.00 0.00 0.00 0.00 0.00 0.00 0.00 0.00 0.00 0.00 0.00 0.10 0.08 0.06 0.01 0.00 0.00 0.00 0.00 0.00 0.00 0.00 0.00 0.00 0.00 0.00 0.00 0.00 0.00 0.00 0.00 0.00 0.00 0.00 0.00 0.00 0.00 0.00 0.00 0.00 0.00 0.00 0.00 0.00 0.00 0.00 0.00 0.00 0.00 0.00 0.00 0.00 0.00 0.00
0.00 0.00 0.00 0.00 0.00 0.00 0.00 0.00 0.00 0.00 0.00 0.00 0.00 0.00 0.00 0.00 0.00 0.01 0.00 0.03 0.08 0.02 0.00 0.00 0.00 0.00 0.01 0.00 0.00 0.00 0.00 0.01 0.00 0.00 0.00 0.00 0.00 0.00 0.00 0.00 0.00 0.00 0.00 0.00 0.00 0.00 0.00 0.00 0.00 0.00 0.00 0.00 0.00 0.00 0.00 0.00 0.00 0.00 0.00 0.00 0.00 0.00
0.00 0.00 0.00 0.00 0.00 0.00 0.00 0.00 0.00 0.00 0.00 0.00 0.00 0.01 0.00 0.00 0.00 0.00 0.00 0.00 0.00 0.00 0.00 0.00 0.00 0.00 0.00 0.00 0.00 0.00 0.00 0.00 0.01 0.00 0.00 0.00 0.00 0.00 0.00 0.00 0.00 0.00 0.00 0.00 0.00 0.00 0.00 0.00 0.00 0.00 0.00 0.00 0.00 0.00 0.00 0.00 0.00 0.00 0.00 0.00 0.00 0.00
0.00 0.00 0.00 0.00 0.00 0.00 0.00 0.00 0.00 0.00 0.00 0.00 0.00 0.00 0.00 0.00 0.00 0.00 0.00 0.00 0.00 0.00 0.00 0.00 0.00 0.00 0.00 0.00 0.00 0.00 0.00 0.00 0.00 0.00 0.00 0.00 0.00 0.00 0.00 0.00 0.00 0.00 0.00 0.00 0.00 0.00 0.00 0.00 0.00 0.00 0.00 0.00 0.00 0.00 0.00 0.00 0.00 0.00 0.00 0.00 0.00 0.00
0.00 0.00 0.00 0.00 0.00 0.00 0.00 0.00 0.00 0.00 0.00 0.00 0.00 0.00 0.00 0.00 0.00 0.00 0.00 0.00 0.00 0.00 0.00 0.00 0.00 0.00 0.00 0.00 0.00 0.00 0.00 0.00 0.00 0.00 0.00 0.00 0.00 0.00 0.00 0.00 0.00 0.00 0.00 0.00 0.00 0.00 0.00 0.00 0.00 0.00 0.00 0.00 0.00 0.00 0.00 0.00 0.00 0.00 0.00 0.00 0.00 0.00
0.00 0.00 0.00 0.00 0.00 0.00 0.00 0.00 0.00 0.00 0.00 0.00 0.00 0.00 0.00 0.00 0.00 0.00 0.00 0.00 0.00 0.00 0.00 0.00 0.00 0.00 0.00 0.00 0.00 0.00 0.00 0.00 0.00 0.00 0.00 0.00 0.00 0.00 0.00 0.00 0.00 0.00 0.00 0.00 0.00 0.00 0.00 0.00 0.00 0.00 0.00 0.00 0.00 0.00 0.00 0.00 0.00 0.00 0.00 0.00 0.00 0.00
0.00 0.00 0.00 0.00 0.00 0.00 0.00 0.00 0.00 0.00 0.00 0.00 0.00 0.00 0.00 0.00 0.00 0.00 0.00 0.00 0.00 0.00 0.00 0.00 0.00 0.00 0.00 0.00 0.00 0.00 0.00 0.00 0.00 0.00 0.00 0.00 0.00 0.00 0.00 0.00 0.00 0.00 0.00 0.00 0.00 0.00 0.00 0.00 0.00 0.00 0.00 0.00 0.00 0.00 0.00 0.00 0.00 0.00 0.00 0.00 0.00 0.00
0.00 0.00 0.00 0.00 0.00 0.00 0.00 0.00 0.00 0.00 0.00 0.00 0.00 0.00 0.00 0.00 0.00 0.00 0.00 0.00 0.00 0.00 0.00 0.00 0.00 0.00 0.00 0.00 0.00 0.00 0.00 0.00 0.00 0.00 0.00 0.00 0.00 0.00 0.00 0.00 0.00 0.00 0.00 0.00 0.00 0.00 0.00 0.00 0.00 0.00 0.00 0.00 0.00 0.00 0.00 0.00 0.00 0.00 0.00 0.00 0.00 0.00
0.00 0.00 0.00 0.00 0.00 0.00 0.00 0.00 0.00 0.00 0.00 0.00 0.00 0.00 0.00 0.00 0.00 0.00 0.00 0.00 0.00 0.01 0.00 0.00 0.00 0.00 0.00 0.00 0.00 0.00 0.00 0.00 0.00 0.00 0.00 0.00 0.00 0.00 0.00 0.00 0.00 0.00 0.00 0.00 0.00 0.00 0.00 0.00 0.00 0.00 0.00 0.00 0.00 0.00 0.00 0.00 0.00 0.00 0.00 0.00 0.00 0.00
0.00 0.00 0.00 0.00 0.00 0.00 0.00 0.00 0.00 0.00 0.00 0.00 0.00 0.00 0.00 0.00 0.00 0.00 0.00 0.00 0.00 0.00 0.00 0.00 0.00 0.00 0.00 0.00 0.00 0.00 0.00 0.00 0.00 0.00 0.00 0.00 0.00 0.00 0.00 0.00 0.00 0.00 0.00 0.00 0.00 0.00 0.00 0.00 0.00 0.00 0.00 0.00 0.00 0.00 0.00 0.00 0.00 0.00 0.00 0.00 0.00 0.00
0.00 0.00 0.00 0.00 0.00 0.00 0.00 0.00 0.00 0.00 0.00 0.00 0.00 0.00 0.00 0.00 0.00 0.00 0.00 0.00 0.00 0.00 0.00 0.00 0.00 0.00 0.00 0.00 0.00 0.00 0.00 0.00 0.00 0.00 0.00 0.00 0.00 0.00 0.00 0.00 0.00 0.00 0.00 0.00 0.00 0.00 0.00 0.00 0.00 0.00 0.00 0.00 0.00 0.00 0.01 0.00 0.00 0.00 0.00 0.00 0.00 0.00
0.00 0.00 0.00 0.00 0.00 0.00 0.00 0.00 0.00 0.00 0.00 0.00 0.00 0.00 0.00 0.00 0.00 0.00 0.00 0.00 0.00 0.00 0.00 0.00 0.00 0.00 0.00 0.00 0.00 0.00 0.00 0.00 0.00 0.00 0.00 0.00 0.00 0.00 0.00 0.00 0.00 0.00 0.00 0.00 0.00 0.00 0.00 0.00 0.00 0.00 0.00 0.00 0.01 0.03 0.02 0.00 0.00 0.00 0.00 0.00 0.00 0.00
0.00 0.00 0.00 0.00 0.00 0.00 0.00 0.00 0.00 0.00 0.00 0.00 0.00 0.00 0.00 0.00 0.00 0.00 0.00 0.00 0.00 0.00 0.00 0.00 0.00 0.00 0.00 0.00 0.00 0.00 0.00 0.00 0.00 0.00 0.00 0.00 0.00 0.00 0.00 0.00 0.00 0.00 0.00 0.00 0.00 0.00 0.00 0.00 0.00 0.00 0.00 0.00 0.00 0.00 0.00 0.00 0.01 0.00 0.00 0.00 0.00 0.00
0.00 0.00 0.00 0.00 0.00 0.00 0.00 0.00 0.00 0.00 0.00 0.00 0.00 0.00 0.00 0.00 0.00 0.00 0.00 0.00 0.00 0.00 0.00 0.00 0.00 0.00 0.00 0.00 0.00 0.00 0.00 0.00 0.00 0.00 0.00 0.00 0.00 0.00 0.00 0.00 0.00 0.00 0.00 0.00 0.00 0.00 0.00 0.00 0.00 0.00 0.00 0.00 0.00 0.00 0.00 0.00 0.00 0.00 0.00 0.00 0.00 0.00
0.00 0.00 0.00 0.00 0.00 0.00 0.00 0.00 0.00 0.00 0.00 0.00 0.00 0.00 0.00 0.00 0.00 0.00 0.00 0.00 0.00 0.00 0.00 0.00 0.00 0.00 0.00 0.00 0.00 0.00 0.00 0.00 0.00 0.00 0.00 0.00 0.00 0.00 0.00 0.00 0.00 0.00 0.00 0.00 0.00 0.00 0.00 0.00 0.00 0.00 0.00 0.00 0.00 0.00 0.00 0.00 0.00 0.00 0.00 0.00 0.00 0.00
0.00 0.00 0.00 0.00 0.00 0.00 0.00 0.00 0.00 0.00 0.00 0.00 0.00 0.00 0.00 0.00 0.00 0.00 0.00 0.00 0.00 0.00 0.00 0.00 0.00 0.00 0.00 0.00 0.00 0.00 0.00 0.00 0.00 0.00 0.00 0.00 0.00 0.00 0.00 0.00 0.00 0.00 0.00 0.00 0.00 0.00 0.00 0.00 0.00 0.00 0.00 0.00 0.00 0.00 0.00 0.00 0.00 0.00 0.00 0.00 0.01 0.00
0.00 0.00 0.01 0.00 0.00 0.00 0.00 0.00 0.00 0.00 0.00 0.00 0.00 0.00 0.00 0.00 0.00 0.00 0.00 0.00 0.00 0.00 0.00 0.00 0.00 0.00 0.00 0.00 0.00 0.00 0.00 0.00 0.00 0.00 0.00 0.00 0.00 0.00 0.00 0.00 0.00 0.00 0.00 0.00 0.00 0.00 0.00 0.00 0.00 0.00 0.00 0.00 0.00 0.00 0.00 0.01 0.00 0.00 0.00 0.00 0.00 0.00
0.00 0.00 0.00 0.00 0.00 0.00 0.00 0.00 0.00 0.00 0.00 0.00 0.00 0.00 0.00 0.00 0.00 0.00 0.00 0.00 0.00 0.00 0.00 0.00 0.00 0.00 0.00 0.00 0.00 0.00 0.00 0.00 0.00 0.00 0.00 0.00 0.00 0.00 0.00 0.00 0.00 0.00 0.00 0.00 0.00 0.00 0.00 0.00 0.00 0.00 0.00 0.00 0.00 0.00 0.00 0.00 0.00 0.00 0.00 0.00 0.01 0.00
0.00 0.00 0.00 0.00 0.00 0.00 0.00 0.00 0.00 0.00 0.00 0.00 0.00 0.00 0.00 0.00 0.00 0.00 0.00 0.00 0.00 0.00 0.00 0.00 0.00 0.00 0.00 0.00 0.00 0.00 0.00 0.00 0.00 0.00 0.00 0.00 0.00 0.00 0.00 0.00 0.00 0.00 0.00 0.00 0.00 0.00 0.00 0.00 0.00 0.00 0.00 0.00 0.00 0.00 0.00 0.00 0.00 0.00 0.00 0.00 0.00 0.00
0.00 0.00 0.00 0.00 0.00 0.00 0.00 0.00 0.00 0.00 0.00 0.00 0.00 0.00 0.00 0.00 0.00 0.00 0.00 0.00 0.00 0.00 0.00 0.00 0.00 0.00 0.00 0.00 0.00 0.00 0.00 0.00 0.00 0.00 0.00 0.00 0.00 0.00 0.00 0.00 0.00 0.00 0.00 0.00 0.00 0.00 0.00 0.00 0.00 0.00 0.00 0.00 0.00 0.00 0.00 0.00 0.00 0.00 0.00 0.00 0.00 0.00
0.00 0.00 0.00 0.00 0.00 0.00 0.00 0.00 0.00 0.00 0.00 0.00 0.00 0.00 0.00 0.00 0.00 0.00 0.00 0.00 0.00 0.00 0.00 0.00 0.00 0.00 0.00 0.00 0.00 0.00 0.00 0.00 0.00 0.00 0.00 0.00 0.00 0.00 0.00 0.00 0.00 0.00 0.00 0.00 0.00 0.00 0.00 0.00 0.00 0.00 0.00 0.00 0.00 0.00 0.00 0.00 0.00 0.00 0.00 0.00 0.00 0.00
0.00 0.00 0.00 0.00 0.00 0.00 0.00 0.00 0.00 0.00 0.00 0.00 0.00 0.00 0.00 0.00 0.00 0.00 0.00 0.00 0.00 0.00 0.00 0.00 0.00 0.00 0.00 0.00 0.00 0.00 0.00 0.00 0.00 0.00 0.00 0.00 0.00 0.00 0.00 0.00 0.00 0.00 0.00 0.00 0.00 0.00 0.00 0.00 0.00 0.00 0.00 0.00 0.00 0.00 0.00 0.00 0.00 0.00 0.00 0.00 0.00 0.00
0.00 0.00 0.00 0.00 0.00 0.00 0.00 0.00 0.00 0.00 0.00 0.00 0.00 0.00 0.00 0.00 0.00 0.00 0.00 0.00 0.00 0.00 0.00 0.00 0.00 0.00 0.00 0.00 0.00 0.00 0.00 0.00 0.00 0.00 0.00 0.00 0.00 0.00 0.00 0.00 0.00 0.00 0.00 0.00 0.00 0.00 0.00 0.00 0.00 0.00 0.00 0.00 0.00 0.00 0.00 0.00 0.00 0.00 0.00 0.00 0.00 0.00
MSLP
1016.43 1016.51 1016.59 1016.63 1016.71 1016.79 1016.87 1016.99 1017.15 1017.27 1017.31 1017.43 1017.55 1017.63 1017.67 1017.63 1017.63 1017.63 1017.63 1017.71 1017.79 1017.91 1017.91 1017.95 1017.95 1017.99 1017.95 1017.99 1017.99 1017.99 1018.03 1018.07 1018.11 1018.11 1018.11 1018.11 1018.15 1018.19 1018.23 1018.19 1018.19 1018.19 1018.15 1018.11 1018.03 1018.03 1017.95 1017.83 1017.75 1017.75 1017.71 1017.63 1017.55 1017.51 1017.71 1017.75 1017.75 1017.63 1017.63 1017.67 1017.71 1017.83
1016.47 1016.63 1016.67 1016.75 1016.79 1016.87 1016.91 1017.07 1017.27 1017.35 1017.43 1017.55 1017.67 1017.79 1017.83 1017.79 1017.75 1017.79 1017.83 1017.91 1017.99 1017.99 1018.07 1018.11 1018.07 1017.99 1017.99 1017.99 1017.99 1017.99 1018.03 1018.07 1018.11 1018.15 1018.15 1018.15 1018.15 1018.19 1018.19 1018.19 1018.15 1018.11 1018.11 1018.11 1018.07 1018.11 1018.11 1018.03 1017.91 1017.83 1017.75 1017.67 1017.67 1017.67 1017.55 1017.71 1017.71 1017.71 1017.67 1017.71 1017.67 1017.67
1016.67 1016.79 1016.87 1016.95 1016.99 1017.03 1017.11 1017.19 1017.31 1017.39 1017.47 1017.59 1017.71 1017.87 1017.91 1017.87 1017.91 1017.99 1017.99 1018.07 1018.07 1018.07 1018.11 1018.11 1018.11 1017.99 1018.03 1018.03 1018.03 1018.03 1018.03 1018.07 1018.11 1018.15 1018.19 1018.23 1018.19 1018.19 1018.15 1018.15 1018.15 1018.15 1018.15 1018.15 1018.19 1018.27 1018.23 1018.19 1018.07 1017.87 1017.75 1017.71 1017.75 1017.67 1017.59 1017.55 1017.67 1017.63 1017.63 1017.63 1017.63 1017.55
1016.95 1017.03 1017.15 1017.23 1017.23 1017.23 1017.31 1017.35 1017.47 1017.51 1017.59 1017.71 1017.79 1017.91 1017.95 1017.95 1018.03 1018.07 1018.11 1018.15 1018.15 1018.11 1018.11 1018.15 1018.07 1017.95 1017.99 1018.07 1018.07 1018.07 1018.11 1018.15 1018.15 1018.19 1018.23 1018.27 1018.23 1018.23 1018.23 1018.19 1018.23 1018.23 1018.23 1018.27 1018.35 1018.39 1018.39 1018.35 1018.27 1018.15 1018.03 1017.87 1017.79 1017.67 1017.63 1017.47 1017.55 1017.55 1017.55 1017.47 1017.55 1017.51
1017.11 1017.27 1017.35 1017.39 1017.43 1017.51 1017.55 1017.63 1017.71 1017.71 1017.75 1017.79 1017.91 1017.95 1017.99 1018.03 1018.07 1018.15 1018.23 1018.23 1018.15 1018.15 1018.19 1018.19 1018.15 1018.07 1018.11 1018.15 1018.19 1018.23 1018.23 1018.27 1018.23 1018.31 1018.23 1018.39 1018.43 1018.43 1018.35 1018.35 1018.35 1018.27 1018.31 1018.35 1018.39 1018.35 1018.43 1018.43 1018.31 1018.19 1018.11 1017.95 1017.87 1017.75 1017.67 1017.43 1017.35 1017.39 1017.39 1017.35 1017.27 1017.31
1017.23 1017.43 1017.51 1017.59 1017.63 1017.67 1017.75 1017.95 1017.99 1017.91 1017.91 1017.91 1017.99 1018.03 1018.03 1018.07 1018.07 1018.15 1018.23 1018.31 1018.19 1018.23 1018.27 1018.27 1018.31 1018.35 1018.23 1018.15 1018.23 1018.27 1018.27 1018.27 1018.31 1018.35 1018.23 1018.35 1018.31 1018.35 1018.35 1018.39 1018.35 1018.31 1018.23 1018.23 1018.23 1018.23 1018.23 1018.23 1018.23 1018.11 1017.99 1017.83 1017.71 1017.71 1017.59 1017.43 1017.23 1017.27 1017.15 1017.19 1017.19 1017.19
1017.43 1017.59 1017.67 1017.63 1017.71 1017.83 1018.03 1017.99 1017.95 1017.91 1017.95 1018.03 1017.99 1018.15 1018.15 1018.07 1018.03 1018.07 1018.19 1018.23 1018.35 1018.35 1018.35 1018.39 1018.39 1018.35 1018.35 1018.23 1018.23 1018.23 1018.27 1018.23 1018.31 1018.31 1018.23 1018.31 1018.35 1018.31 1018.31 1018.35 1018.35 1018.35 1018.27 1018.23 1018.19 1018.11 1018.03 1017.99 1017.99 1017.99 1017.83 1017.67 1017.55 1017.51 1017.43 1017.35 1017.19 1017.15 1017.03 1017.03 1017.07 1017.03
1017.39 1017.67 1017.83 1017.79 1017.91 1018.03 1018.07 1018.07 1017.99 1017.83 1017.83 1017.87 1017.99 1018.11 1018.07 1018.03 1017.99 1018.03 1018.07 1018.07 1018.19 1018.31 1018.39 1018.43 1018.39 1018.35 1018.39 1018.27 1018.23 1018.19 1018.15 1018.19 1018.23 1018.15 1018.15 1018.19 1018.35 1018.31 1018.31 1018.27 1018.27 1018.23 1018.19 1018.11 1018.11 1017.99 1017.95 1017.87 1017.79 1017.75 1017.75 1017.55 1017.39 1017.39 1017.39 1017.35 1017.23 1017.11 1016.99 1016.91 1016.99 1016.91
1017.23 1017.71 1017.87 1017.87 1018.03 1017.95 1017.99 1018.03 1017.95 1017.91 1017.87 1017.75 1017.87 1017.91 1017.91 1017.91 1018.03 1017.99 1017.99 1018.03 1017.99 1018.19 1018.23 1018.27 1018.39 1018.35 1018.27 1018.19 1018.15 1018.11 1018.07 1018.11 1018.07 1018.03 1018.07 1018.19 1018.23 1018.31 1018.27 1018.23 1018.23 1018.23 1018.11 1018.11 1018.03 1017.99 1017.87 1017.83 1017.75 1017.67 1017.63 1017.47 1017.27 1017.19 1017.19 1017.11 1017.03 1016.99 1016.99 1016.91 1016.83 1016.75
1016.95 1017.35 1017.79 1017.99 1017.95 1017.91 1017.91 1018.03 1017.95 1017.87 1017.75 1017.63 1017.71 1017.71 1017.75 1017.87 1017.95 1017.91 1017.95 1017.95 1017.91 1017.91 1018.07 1018.19 1018.27 1018.23 1018.19 1018.19 1018.15 1018.11 1018.07 1018.03 1018.03 1017.91 1017.91 1018.07 1018.07 1018.19 1018.23 1018.19 1018.19 1018.19 1018.19 1018.15 1018.11 1017.95 1017.87 1017.87 1017.75 1017.63 1017.51 1017.43 1017.23 1017.19 1017.07 1016.91 1016.79 1016.83 1016.83 1016.79 1016.71 1016.59
1016.67 1016.67 1017.39 1017.99 1017.95 1017.75 1017.71 1017.83 1017.83 1017.75 1017.67 1017.59 1017.51 1017.55 1017.67 1017.71 1017.75 1017.87 1017.87 1017.79 1017.79 1017.67 1017.75 1017.83 1017.83 1017.91 1017.99 1018.03 1018.03 1017.95 1017.91 1017.91 1017.91 1017.83 1017.79 1017.83 1017.79 1017.83 1017.87 1017.95 1017.95 1017.95 1017.99 1017.99 1017.95 1017.79 1017.79 1017.79 1017.63 1017.43 1017.27 1017.19 1017.11 1016.95 1016.83 1016.71 1016.67 1016.63 1016.71 1016.71 1016.67 1016.63
1017.23 1016.63 1016.35 1017.07 1017.55 1017.67 1017.71 1017.67 1017.75 1017.79 1017.71 1017.55 1017.47 1017.55 1017.67 1017.67 1017.79 1017.83 1017.71 1017.63 1017.51 1017.43 1017.43 1017.43 1017.51 1017.63 1017.67 1017.75 1017.83 1017.87 1017.83 1017.83 1017.75 1017.67 1017.67 1017.67 1017.75 1017.79 1017.75 1017.75 1017.71 1017.75 1017.79 1017.83 1017.87 1017.75 1017.67 1017.71 1017.67 1017.47 1017.27 1017.19 1017.03 1017.03 1016.95 1016.83 1016.75 1016.59 1016.63 1016.59 1016.59 1016.59
1017.27 1017.23 1016.43 1016.67 1017.27 1017.39 1017.43 1017.59 1017.83 1017.91 1017.79 1017.63 1017.59 1017.59 1017.71 1017.83 1017.91 1017.83 1017.71 1017.59 1017.59 1017.75 1017.75 1017.71 1017.55 1017.43 1017.51 1017.67 1017.79 1017.87 1017.83 1017.75 1017.67 1017.59 1017.55 1017.63 1017.67 1017.67 1017.71 1017.75 1017.75 1017.75 1017.75 1017.75 1017.75 1017.71 1017.59 1017.59 1017.59 1017.43 1017.31 1017.19 1017.07 1017.03 1016.95 1016.91 1016.79 1016.67 1016.55 1016.47 1016.51 1016.43
1017.23 1017.31 1016.75 1016.59 1016.99 1017.31 1017.43 1017.59 1017.71 1017.79 1017.71 1017.67 1017.67 1017.71 1017.83 1017.87 1017.83 1017.75 1017.71 1017.83 1018.07 1018.15 1018.31 1018.07 1017.87 1017.71 1017.51 1017.55 1017.67 1017.83 1017.83 1017.71 1017.59 1017.59 1017.55 1017.55 1017.67 1017.71 1017.83 1017.87 1017.91 1017.87 1017.83 1017.83 1017.87 1017.83 1017.79 1017.79 1017.59 1017.43 1017.35 1017.19 1017.11 1017.07 1016.95 1016.91 1016.79 1016.67 1016.55 1016.43 1016.35 1016.39
1016.87 1017.03 1016.71 1016.75 1017.07 1017.27 1017.31 1017.47 1017.55 1017.55 1017.59 1017.63 1017.75 1017.87 1017.83 1017.79 1017.79 1017.71 1017.79 1018.07 1018.03 1017.99 1018.03 1017.99 1017.83 1017.83 1017.83 1017.79 1017.83 1017.83 1017.75 1017.67 1017.59 1017.59 1017.55 1017.55 1017.67 1017.75 1017.91 1017.99 1017.91 1017.99 1017.95 1017.95 1017.95 1017.91 1017.87 1017.87 1017.79 1017.63 1017.39 1017.19 1017.11 1016.95 1016.83 1016.79 1016.67 1016.67 1016.55 1016.39 1016.31 1016.27
1016.35 1016.47 1016.51 1016.63 1016.87 1017.07 1017.27 1017.35 1017.39 1017.35 1017.43 1017.55 1017.71 1017.83 1017.83 1017.79 1017.75 1017.79 1017.95 1018.07 1018.11 1018.23 1018.27 1017.99 1017.83 1017.75 1017.87 1017.79 1017.79 1017.87 1017.83 1017.63 1017.59 1017.59 1017.59 1017.63 1017.71 1017.95 1017.99 1017.95 1017.91 1017.99 1018.19 1018.15 1018.11 1018.03 1017.83 1017.83 1017.71 1017.63 1017.35 1017.19 1017.03 1016.91 1016.83 1016.71 1016.63 1016.55 1016.47 1016.43 1016.31 1016.23
1015.99 1015.95 1016.23 1016.43 1016.71 1017.03 1017.11 1017.23 1017.27 1017.31 1017.47 1017.63 1017.75 1017.87 1017.87 1017.79 1017.71 1017.87 1017.99 1018.15 1018.19 1018.27 1018.23 1018.03 1017.91 1017.79 1017.79 1017.83 1017.83 1017.91 1017.83 1017.75 1017.63 1017.71 1017.75 1017.75 1017.87 1017.95 1018.03 1018.03 1017.99 1017.99 1018.11 1018.31 1018.23 1018.19 1017.99 1017.83 1017.75 1017.51 1017.27 1017.15 1016.95 1016.87 1016.83 1016.71 1016.59 1016.51 1016.43 1016.47 1016.39 1016.27
1015.67 1015.79 1015.99 1016.31 1016.63 1016.95 1017.07 1017.11 1017.19 1017.35 1017.47 1017.71 1017.87 1017.95 1017.95 1017.83 1017.91 1018.03 1018.11 1018.27 1018.31 1018.31 1018.27 1018.15 1018.03 1017.83 1017.83 1017.83 1017.91 1017.95 1017.95 1017.87 1017.75 1017.79 1017.83 1017.95 1018.07 1018.03 1018.11 1018.11 1018.27 1018.15 1018.19 1018.31 1018.35 1018.35 1018.23 1017.95 1017.75 1017.59 1017.39 1017.15 1016.91 1016.79 1016.67 1016.59 1016.55 1016.51 1016.55 1016.51 1016.35 1016.31
1015.67 1015.91 1016.15 1016.39 1016.75 1016.99 1017.03 1017.11 1017.15 1017.31 1017.51 1017.75 1017.95 1018.07 1018.11 1018.15 1018.11 1018.11 1018.23 1018.31 1018.35 1018.31 1018.31 1018.19 1018.07 1017.99 1017.99 1018.07 1018.19 1018.11 1018.07 1018.03 1017.87 1017.99 1018.11 1018.27 1018.39 1018.35 1018.31 1018.39 1018.51 1018.51 1018.31 1018.35 1018.47 1018.47 1018.43 1018.19 1017.95 1017.75 1017.55 1017.23 1016.99 1016.79 1016.59 1016.51 1016.55 1016.59 1016.59 1016.55 1016.43 1016.23
1015.51 1015.71 1015.99 1016.35 1016.71 1017.07 1017.15 1017.23 1017.47 1017.55 1017.75 1017.91 1018.11 1018.31 1018.47 1018.43 1018.27 1018.27 1018.31 1018.39 1018.35 1018.39 1018.31 1018.23 1018.15 1018.07 1018.11 1018.27 1018.35 1018.35 1018.35 1018.19 1018.19 1018.23 1018.43 1018.63 1018.79 1018.75 1018.79 1018.71 1018.75 1018.83 1018.79 1018.59 1018.51 1018.55 1018.43 1018.31 1018.07 1017.91 1017.75 1017.39 1017.07 1016.83 1016.59 1016.59 1016.67 1016.67 1016.63 1016.55 1016.47 1016.31
1015.47 1015.59 1015.91 1016.31 1016.67 1016.95 1017.31 1017.55 1017.55 1017.67 1017.99 1018.15 1018.31 1018.51 1018.67 1018.55 1018.43 1018.35 1018.39 1018.43 1018.51 1018.47 1018.43 1018.39 1018.35 1018.35 1018.47 1018.47 1018.51 1018.51 1018.47 1018.51 1018.43 1018.47 1018.63 1018.91 1018.95 1018.91 1018.87 1018.91 1018.99 1018.95 1019.11 1019.15 1019.11 1018.91 1018.75 1018.51 1018.55 1018.35 1017.91 1017.75 1017.31 1016.87 1016.75 1016.67 1016.71 1016.71 1016.75 1016.63 1016.47 1016.43
1015.43 1015.71 1015.87 1015.99 1016.35 1016.71 1016.83 1016.95 1017.27 1017.75 1017.99 1018.31 1018.51 1018.63 1018.79 1018.67 1018.55 1018.47 1018.47 1018.51 1018.55 1018.55 1018.55 1018.59 1018.63 1018.63 1018.63 1018.67 1018.75 1018.79 1018.83 1018.87 1018.75 1018.79 1018.87 1018.95 1018.99 1019.03 1019.11 1019.15 1019.19 1019.23 1019.23 1019.43 1019.59 1019.43 1019.23 1018.83 1019.11 1019.43 1019.07 1018.39 1017.71 1017.19 1016.79 1016.75 1016.79 1016.83 1016.83 1016.71 1016.63 1016.51
1015.43 1015.71 1015.91 1015.95 1016.27 1016.67 1016.83 1016.95 1017.11 1017.71 1017.95 1018.35 1018.39 1018.39 1018.51 1018.63 1018.59 1018.67 1018.71 1018.75 1018.79 1018.83 1018.79 1018.83 1018.79 1018.67 1018.75 1018.95 1019.07 1019.07 1019.15 1019.07 1018.99 1018.95 1018.99 1019.15 1019.23 1019.35 1019.43 1019.55 1019.55 1019.67 1019.63 1019.55 1019.67 1019.55 1019.51 1019.35 1019.79 1019.19 1018.87 1018.87 1018.91 1018.47 1017.35 1017.11 1017.03 1017.15 1017.07 1016.87 1016.79 1016.75
1015.55 1015.75 1015.95 1016.07 1016.27 1016.51 1016.79 1017.07 1017.31 1017.63 1017.99 1018.07 1018.43 1018.55 1018.63 1018.75 1018.83 1018.83 1018.99 1018.91 1018.95 1018.99 1018.99 1019.11 1019.07 1019.11 1019.23 1019.31 1019.31 1019.35 1019.27 1019.19 1019.23 1019.19 1019.27 1019.47 1019.59 1019.71 1019.71 1019.75 1019.83 1019.83 1019.79 1020.03 1020.07 1020.07 1019.83 1019.67 1019.63 1019.47 1019.63 1019.67 1019.31 1019.11 1019.03 1018.63 1018.55 1017.71 1017.23 1017.03 1017.07 1016.95
1015.67 1015.91 1016.03 1016.15 1016.35 1016.59 1016.99 1017.43 1017.67 1017.95 1018.07 1018.31 1018.51 1018.79 1018.95 1019.23 1019.19 1019.11 1019.11 1019.15 1019.27 1019.15 1019.23 1019.39 1019.43 1019.39 1019.39 1019.47 1019.47 1019.43 1019.39 1019.43 1019.43 1019.51 1019.51 1019.67 1019.87 1019.99 1019.99 1020.03 1020.07 1020.07 1020.15 1020.31 1020.59 1020.47 1020.23 1020.03 1019.91 1019.67 1019.87 1019.79 1019.67 1019.47 1019.87 1019.43 1018.75 1017.79 1017.31 1017.47 1017.31 1017.23
1015.79 1015.95 1016.15 1016.31 1016.43 1016.67 1017.07 1017.43 1017.87 1018.23 1018.63 1018.79 1019.15 1019.31 1019.51 1019.55 1019.55 1019.51 1019.55 1019.51 1019.47 1019.47 1019.55 1019.55 1019.55 1019.51 1019.51 1019.59 1019.67 1019.63 1019.59 1019.63 1019.71 1019.79 1019.83 1019.95 1020.03 1020.03 1020.19 1020.27 1020.39 1020.39 1020.47 1020.47 1020.63 1020.79 1020.79 1020.39 1020.27 1020.15 1020.03 1020.07 1020.19 1020.47 1020.27 1019.51 1019.11 1018.99 1017.67 1017.47 1017.43 1017.47
1015.87 1015.99 1016.19 1016.39 1016.59 1016.83 1017.27 1017.47 1017.59 1017.87 1018.15 1018.51 1018.99 1019.27 1019.23 1019.31 1019.39 1019.55 1019.47 1019.59 1019.71 1019.67 1019.63 1019.67 1019.79 1019.75 1019.83 1019.83 1019.83 1019.83 1019.87 1019.95 1019.99 1019.99 1020.03 1020.07 1020.27 1020.43 1020.51 1020.59 1020.63 1020.59 1020.75 1020.75 1020.71 1021.11 1021.27 1021.07 1020.51 1020.47 1020.47 1020.39 1020.23 1020.15 1020.03 1019.95 1020.35 1019.75 1018.79 1017.99 1017.71 1017.79
1015.99 1016.11 1016.27 1016.51 1016.79 1016.95 1017.27 1017.55 1017.71 1017.99 1018.27 1018.59 1018.79 1019.19 1019.31 1019.47 1019.47 1019.51 1019.71 1019.87 1019.83 1019.95 1019.95 1019.99 1020.03 1020.07 1020.03 1020.03 1020.03 1020.15 1020.19 1020.19 1020.15 1020.19 1020.19 1020.39 1020.59 1020.71 1020.71 1020.79 1020.79 1020.87 1020.87 1020.95 1021.03 1021.23 1021.39 1021.27 1021.23 1021.19 1020.83 1020.67 1020.51 1020.31 1020.19 1020.15 1020.31 1020.47 1020.35 1019.63 1018.19 1017.99
1016.15 1016.27 1016.43 1016.59 1016.83 1017.07 1017.19 1017.39 1017.67 1017.99 1018.43 1018.59 1018.75 1019.07 1019.23 1019.39 1019.55 1019.59 1019.83 1020.07 1020.15 1020.31 1020.27 1020.23 1020.23 1020.27 1020.31 1020.31 1020.35 1020.43 1020.43 1020.35 1020.31 1020.35 1020.43 1020.63 1020.75 1020.87 1020.95 1021.07 1021.11 1021.11 1021.19 1021.23 1021.15 1021.23 1021.23 1021.35 1021.27 1021.35 1021.15 1020.99 1020.87 1020.75 1020.51 1020.43 1020.51 1020.51 1020.51 1020.59 1019.59 1019.23
1016.27 1016.39 1016.47 1016.63 1016.87 1017.07 1017.23 1017.43 1017.75 1018.03 1018.27 1018.75 1018.91 1019.19 1019.31 1019.55 1019.67 1019.79 1020.07 1020.35 1020.43 1020.47 1020.43 1020.47 1020.59 1020.63 1020.63 1020.63 1020.67 1020.63 1020.55 1020.51 1020.51 1020.51 1020.67 1020.91 1021.03 1021.11 1021.23 1021.31 1021.39 1021.43 1021.43 1021.35 1021.31 1021.19 1021.19 1021.23 1021.23 1021.35 1021.43 1021.47 1021.43 1021.23 1020.91 1020.95 1021.11 1021.27 1021.03 1020.99 1021.31 1020.43
1016.31 1016.43 1016.51 1016.71 1016.87 1017.19 1017.35 1017.59 1017.75 1017.99 1018.23 1018.63 1019.03 1019.19 1019.43 1019.71 1019.87 1020.07 1020.31 1020.55 1020.59 1020.67 1020.67 1020.83 1020.87 1020.91 1020.87 1020.87 1020.83 1020.75 1020.71 1020.71 1020.71 1020.83 1020.99 1021.15 1021.31 1021.43 1021.51 1021.55 1021.59 1021.59 1021.59 1021.51 1021.47 1021.39 1021.39 1021.47 1021.59 1021.67 1021.67 1021.71 1021.79 1021.79 1021.91 1021.95 1022.03 1022.03 1022.15 1022.03 1021.51 1020.87
1016.43 1016.51 1016.63 1016.83 1016.99 1017.23 1017.47 1017.71 1017.83 1018.07 1018.35 1018.63 1018.79 1019.07 1019.23 1019.63 1019.91 1020.19 1020.43 1020.67 1020.75 1020.83 1020.99 1021.03 1021.03 1021.03 1021.07 1021.03 1021.03 1021.03 1020.99 1020.99 1021.07 1021.23 1021.43 1021.51 1021.59 1021.63 1021.71 1021.75 1021.79 1021.79 1021.79 1021.75 1021.75 1021.79 1021.91 1021.99 1021.99 1022.07 1022.11 1022.11 1022.23 1022.27 1022.31 1022.39 1022.39 1022.47 1022.67 1022.59 1022.35 1021.99
1016.59 1016.59 1016.75 1016.91 1017.11 1017.35 1017.59 1017.83 1017.99 1018.23 1018.51 1018.71 1018.91 1019.03 1019.27 1019.63 1019.91 1020.19 1020.39 1020.55 1020.71 1020.95 1020.99 1020.95 1021.11 1021.19 1021.27 1021.23 1021.23 1021.27 1021.35 1021.43 1021.51 1021.59 1021.67 1021.67 1021.75 1021.79 1021.87 1021.91 1021.95 1021.95 1022.03 1022.11 1022.19 1022.23 1022.39 1022.51 1022.47 1022.51 1022.63 1022.55 1022.47 1022.51 1022.71 1022.71 1022.71 1022.91 1022.95 1022.95 1022.95 1022.99
1016.67 1016.71 1016.87 1017.07 1017.27 1017.47 1017.79 1017.99 1018.15 1018.35 1018.63 1018.83 1019.07 1019.15 1019.43 1019.67 1019.95 1020.11 1020.27 1020.47 1020.71 1020.87 1020.87 1021.03 1021.19 1021.35 1021.43 1021.43 1021.55 1021.67 1021.71 1021.79 1021.79 1021.79 1021.79 1021.87 1021.91 1021.99 1022.03 1022.07 1022.11 1022.19 1022.35 1022.47 1022.51 1022.63 1022.79 1022.87 1022.99 1022.99 1022.91 1022.95 1022.95 1022.95 1022.99 1022.95 1023.07 1023.11 1023.27 1023.31 1023.39 1023.31
1016.75 1016.91 1017.03 1017.27 1017.47 1017.67 1017.99 1018.23 1018.39 1018.59 1018.75 1018.91 1019.07 1019.27 1019.51 1019.67 1019.83 1020.07 1020.27 1020.47 1020.75 1020.75 1020.91 1021.11 1021.23 1021.39 1021.55 1021.71 1021.87 1021.91 1021.91 1021.91 1021.91 1021.95 1021.99 1022.07 1022.15 1022.15 1022.19 1022.27 1022.43 1022.59 1022.75 1022.91 1023.03 1023.11 1023.31 1023.35 1023.47 1023.47 1023.35 1023.31 1023.31 1023.31 1023.35 1023.31 1023.31 1023.43 1023.43 1023.55 1023.51 1023.31
1016.75 1017.03 1017.15 1017.43 1017.71 1017.91 1018.19 1018.35 1018.55 1018.75 1018.95 1019.03 1019.23 1019.43 1019.63 1019.79 1019.95 1020.03 1020.27 1020.47 1020.71 1020.87 1021.07 1021.19 1021.39 1021.63 1021.87 1021.95 1022.11 1022.11 1022.11 1022.15 1022.23 1022.27 1022.31 1022.31 1022.39 1022.47 1022.55 1022.63 1022.87 1023.03 1023.23 1023.31 1023.47 1023.59 1023.71 1023.67 1023.75 1023.67 1023.67 1023.67 1023.63 1023.75 1023.71 1023.67 1023.55 1023.59 1023.59 1023.59 1023.47 1023.31
1016.91 1017.23 1017.39 1017.63 1017.91 1018.15 1018.35 1018.55 1018.83 1018.95 1019.11 1019.27 1019.43 1019.63 1019.79 1019.95 1020.07 1020.23 1020.35 1020.55 1020.71 1020.99 1021.19 1021.39 1021.71 1021.91 1022.11 1022.19 1022.23 1022.27 1022.35 1022.47 1022.55 1022.59 1022.59 1022.67 1022.71 1022.83 1022.91 1023.07 1023.35 1023.51 1023.75 1023.79 1023.83 1023.95 1023.91 1023.87 1023.91 1023.91 1023.95 1023.95 1023.99 1023.99 1023.99 1023.87 1023.79 1023.75 1023.71 1023.63 1023.59 1023.47
Thickness
5722 5722 5722 5723 5722 5722 5720 5719 5717 5717 5716 5715 5714 5712 5712 5711 5711 5711 5710 5709 5708 5707 5706 5706 5705 5704 5705 5704 5703 5702 5701 5700 5698 5698 5697 5696 5695 5694 5692 5691 5690 5689 5688 5688 5688 5688 5688 5688 5688 5688 5687 5688 5687 5687 5686 5683 5683 5683 5682 5681 5680 5679
5721 5721 5721 5720 5720 5719 5718 5717 5715 5715 5714 5713 5712 5709 5709 5709 5709 5709 5708 5707 5706 5705 5705 5704 5704 5704 5703 5703 5702 5702 5701 5700 5698 5697 5696 5696 5695 5694 5693 5691 5690 5689 5688 5687 5687 5687 5687 5687 5686 5687 5687 5687 5686 5686 5686 5684 5682 5682 5681 5681 5679 5678
5718 5717 5717 5717 5717 5717 5715 5715 5713 5713 5712 5711 5710 5708 5708 5708 5707 5707 5706 5706 5705 5705 5704 5703 5703 5702 5703 5701 5701 5701 5700 5700 5698 5697 5696 5695 5694 5693 5693 5692 5691 5690 5688 5688 5687 5686 5685 5686 5685 5686 5685 5686 5686 5686 5686 5685 5683 5682 5681 5680 5679 5678
5714 5713 5714 5714 5714 5714 5713 5712 5711 5711 5710 5709 5708 5708 5707 5707 5706 5706 5704 5704 5703 5703 5702 5703 5702 5701 5701 5700 5700 5699 5699 5699 5698 5697 5695 5694 5693 5692 5692 5691 5690 5689 5689 5688 5686 5686 5685 5684 5684 5684 5684 5685 5685 5685 5685 5685 5684 5682 5682 5680 5679 5678
5710 5711 5711 5711 5711 5710 5709 5708 5708 5707 5707 5708 5707 5706 5707 5706 5705 5705 5703 5702 5702 5702 5702 5701 5701 5700 5700 5699 5699 5698 5698 5697 5697 5696 5695 5694 5693 5692 5692 5691 5690 5689 5689 5688 5687 5686 5685 5684 5683 5683 5683 5684 5684 5684 5684 5685 5684 5682 5682 5681 5680 5679
5708 5708 5707 5707 5707 5706 5706 5705 5704 5705 5705 5705 5705 5706 5706 5705 5705 5704 5702 5701 5701 5701 5701 5701 5699 5699 5699 5698 5698 5697 5696 5696 5696 5695 5695 5694 5694 5693 5692 5691 5690 5690 5690 5689 5688 5686 5686 5685 5684 5684 5684 5684 5685 5684 5684 5684 5684 5683 5682 5681 5680 5679
5705 5704 5704 5704 5704 5703 5702 5701 5702 5703 5704 5704 5704 5704 5705 5705 5704 5703 5701 5700 5701 5700 5700 5699 5698 5698 5697 5697 5697 5696 5696 5695 5695 5695 5695 5694 5694 5693 5692 5692 5691 5690 5690 5689 5688 5687 5687 5686 5686 5685 5685 5686 5686 5685 5684 5684 5684 5683 5682 5681 5680 5679
5702 5700 5700 5700 5700 5699 5699 5699 5700 5702 5704 5704 5704 5704 5704 5704 5703 5702 5701 5700 5700 5699 5699 5697 5697 5697 5696 5696 5696 5695 5695 5695 5695 5694 5695 5693 5693 5692 5692 5692 5691 5690 5690 5690 5689 5688 5688 5687 5686 5685 5685 5686 5686 5686 5685 5684 5684 5683 5682 5682 5680 5679
5701 5698 5696 5696 5697 5697 5698 5698 5700 5702 5704 5704 5704 5704 5703 5703 5702 5701 5700 5700 5699 5699 5699 5698 5696 5696 5696 5697 5696 5695 5695 5695 5695 5694 5694 5693 5693 5692 5691 5691 5691 5690 5690 5690 5689 5689 5688 5687 5686 5686 5685 5686 5685 5685 5684 5684 5685 5683 5682 5681 5680 5680
5701 5700 5695 5693 5694 5696 5698 5699 5700 5701 5703 5703 5704 5704 5703 5702 5701 5700 5700 5700 5700 5700 5700 5699 5698 5697 5697 5697 5696 5696 5695 5695 5694 5695 5694 5693 5693 5692 5691 5691 5690 5690 5690 5689 5689 5688 5688 5687 5687 5686 5685 5686 5685 5685 5685 5684 5685 5684 5682 5682 5681 5680
5700 5702 5699 5694 5693 5697 5699 5700 5700 5701 5701 5703 5704 5704 5702 5701 5700 5699 5699 5700 5701 5702 5702 5702 5701 5700 5699 5697 5696 5696 5695 5695 5694 5694 5694 5693 5692 5691 5691 5691 5690 5690 5689 5689 5689 5688 5688 5687 5686 5687 5687 5686 5686 5686 5686 5685 5685 5684 5683 5681 5680 5679
5694 5699 5702 5699 5696 5697 5699 5700 5699 5699 5699 5701 5702 5702 5700 5699 5699 5698 5700 5702 5703 5704 5704 5704 5704 5703 5701 5699 5698 5696 5696 5695 5695 5694 5694 5692 5692 5691 5691 5691 5691 5690 5689 5688 5688 5688 5687 5686 5685 5686 5687 5686 5686 5686 5685 5684 5683 5682 5682 5681 5679 5678
5689 5692 5699 5702 5699 5698 5699 5698 5696 5696 5697 5698 5699 5699 5698 5697 5697 5698 5699 5701 5701 5699 5699 5700 5702 5703 5702 5700 5698 5697 5696 5696 5696 5695 5694 5693 5692 5691 5691 5690 5690 5690 5689 5688 5687 5687 5686 5685 5684 5684 5685 5684 5684 5684 5683 5682 5681 5681 5681 5680 5679 5678
5688 5689 5696 5701 5698 5697 5697 5696 5694 5694 5696 5696 5696 5696 5696 5695 5696 5697 5698 5697 5696 5695 5694 5695 5698 5699 5700 5699 5698 5697 5696 5696 5696 5695 5694 5693 5692 5691 5690 5689 5689 5688 5688 5687 5685 5685 5684 5683 5683 5683 5683 5682 5682 5682 5681 5681 5680 5680 5679 5679 5679 5678
5689 5690 5695 5698 5697 5696 5695 5695 5695 5695 5696 5695 5694 5694 5693 5695 5695 5695 5695 5694 5694 5693 5693 5694 5696 5696 5698 5697 5696 5695 5695 5695 5695 5694 5694 5693 5691 5690 5689 5688 5688 5687 5686 5685 5684 5683 5682 5681 5681 5681 5681 5681 5681 5681 5680 5680 5679 5678 5677 5677 5677 5676
5693 5694 5697 5698 5697 5696 5694 5695 5695 5696 5696 5694 5693 5692 5692 5693 5694 5693 5693 5692 5691 5690 5690 5692 5694 5695 5696 5695 5695 5694 5694 5695 5694 5693 5693 5692 5690 5689 5688 5687 5687 5686 5684 5683 5682 5682 5681 5680 5680 5680 5681 5681 5681 5680 5680 5679 5679 5678 5677 5676 5675 5675
5697 5698 5699 5698 5697 5695 5694 5694 5694 5694 5693 5692 5691 5690 5691 5691 5692 5691 5690 5689 5689 5688 5689 5691 5692 5693 5694 5693 5693 5693 5692 5692 5692 5692 5691 5691 5689 5687 5686 5685 5685 5684 5682 5681 5680 5679 5679 5679 5679 5679 5680 5680 5680 5680 5679 5678 5678 5677 5675 5674 5674 5674
5697 5698 5698 5697 5696 5693 5694 5694 5692 5692 5691 5690 5688 5687 5688 5688 5688 5688 5688 5688 5686 5687 5687 5689 5690 5691 5691 5690 5690 5690 5690 5690 5690 5690 5690 5688 5687 5685 5685 5683 5682 5682 5681 5679 5677 5677 5676 5677 5678 5677 5678 5678 5679 5679 5678 5678 5677 5675 5674 5673 5673 5673
5696 5695 5695 5694 5692 5691 5691 5691 5691 5690 5688 5687 5685 5684 5684 5685 5685 5685 5685 5685 5685 5685 5685 5686 5687 5687 5688 5687 5687 5686 5687 5688 5688 5688 5687 5685 5683 5682 5682 5681 5679 5678 5678 5677 5675 5674 5674 5674 5675 5675 5676 5677 5678 5678 5679 5678 5675 5674 5672 5671 5671 5671
5694 5694 5693 5691 5689 5687 5686 5687 5687 5686 5684 5683 5682 5680 5679 5680 5681 5682 5682 5683 5682 5683 5683 5684 5684 5684 5684 5684 5683 5683 5684 5685 5686 5686 5684 5681 5679 5678 5678 5677 5676 5674 5674 5673 5673 5672 5671 5672 5672 5672 5674 5675 5676 5677 5678 5677 5674 5672 5671 5669 5669 5669
5693 5692 5690 5689 5686 5685 5684 5683 5682 5681 5680 5679 5678 5676 5675 5677 5679 5679 5680 5680 5680 5680 5680 5681 5681 5680 5681 5680 5680 5681 5682 5682 5683 5682 5680 5678 5676 5676 5675 5674 5673 5671 5670 5669 5667 5667 5668 5669 5667 5667 5669 5672 5674 5676 5676 5675 5673 5671 5669 5668 5667 5666
5690 5689 5688 5687 5685 5683 5683 5682 5681 5678 5677 5675 5674 5674 5673 5674 5676 5676 5676 5676 5677 5677 5677 5677 5677 5677 5677 5677 5677 5677 5678 5679 5679 5679 5678 5676 5674 5673 5672 5671 5669 5668 5666 5665 5663 5662 5663 5664 5661 5660 5662 5664 5668 5672 5674 5674 5671 5669 5666 5665 5665 5663
5688 5687 5686 5685 5684 5681 5681 5681 5679 5676 5673 5672 5671 5671 5671 5671 5672 5673 5672 5672 5672 5673 5673 5674 5674 5675 5674 5674 5673 5674 5674 5675 5676 5676 5675 5673 5671 5669 5668 5666 5665 5663 5663 5662 5659 5659 5659 5658 5656 5657 5658 5657 5658 5661 5665 5667 5665 5664 5663 5662 5662 5660
5684 5684 5683 5683 5681 5679 5678 5677 5675 5672 5671 5670 5669 5669 5668 5667 5668 5669 5669 5669 5669 5669 5669 5670 5670 5671 5671 5670 5671 5671 5672 5673 5673 5672 5671 5669 5666 5665 5664 5662 5660 5659 5659 5657 5655 5654 5655 5654 5653 5654 5653 5652 5653 5653 5652 5653 5654 5658 5660 5658 5658 5656
5681 5680 5680 5679 5678 5677 5675 5672 5669 5667 5666 5666 5665 5664 5662 5661 5662 5665 5666 5666 5665 5665 5665 5666 5666 5667 5668 5668 5668 5669 5670 5670 5669 5668 5667 5665 5662 5661 5660 5658 5657 5656 5654 5652 5649 5648 5650 5651 5650 5650 5648 5646 5647 5646 5644 5646 5648 5652 5654 5652 5652 5652
5678 5677 5676 5675 5675 5674 5671 5668 5666 5663 5662 5661 5659 5658 5657 5656 5658 5660 5662 5662 5662 5661 5662 5663 5664 5665 5666 5666 5666 5666 5667 5666 5664 5663 5662 5661 5659 5658 5656 5654 5653 5652 5650 5648 5645 5642 5642 5644 5645 5645 5644 5642 5641 5640 5640 5643 5643 5644 5649 5649 5647 5646
5675 5674 5673 5672 5671 5670 5667 5665 5664 5662 5661 5659 5657 5654 5654 5655 5656 5657 5658 5659 5659 5659 5660 5661 5661 5662 5662 5663 5663 5663 5662 5661 5660 5659 5658 5657 5655 5654 5652 5650 5649 5648 5646 5644 5642 5639 5635 5637 5638 5638 5638 5637 5637 5637 5637 5637 5634 5634 5639 5643 5643 5640
5672 5671 5670 5669 5668 5666 5664 5662 5662 5660 5658 5657 5655 5652 5652 5652 5653 5655 5655 5655 5656 5656 5657 5658 5658 5658 5658 5658 5658 5658 5657 5656 5657 5656 5655 5653 5651 5649 5648 5646 5645 5643 5641 5640 5638 5636 5633 5632 5631 5629 5630 5630 5630 5631 5631 5631 5628 5627 5627 5631 5636 5637
5669 5668 5667 5666 5664 5663 5662 5661 5660 5658 5655 5653 5652 5650 5650 5650 5650 5652 5652 5652 5652 5652 5653 5654 5654 5653 5653 5653 5653 5653 5653 5653 5653 5653 5651 5649 5647 5645 5643 5641 5640 5638 5637 5635 5634 5633 5631 5629 5627 5625 5624 5624 5622 5623 5624 5623 5622 5620 5619 5620 5624 5627
5665 5665 5664 5663 5661 5659 5659 5659 5657 5656 5653 5651 5649 5648 5647 5647 5648 5649 5649 5648 5648 5648 5649 5650 5649 5649 5649 5649 5649 5650 5650 5650 5650 5649 5647 5644 5642 5640 5638 5636 5635 5634 5632 5631 5630 5630 5628 5626 5624 5622 5621 5619 5617 5617 5616 5615 5612 5610 5609 5609 5610 5613
5663 5663 5662 5661 5659 5657 5656 5655 5655 5653 5652 5649 5647 5647 5646 5646 5646 5646 5645 5644 5644 5645 5646 5646 5645 5646 5646 5646 5646 5646 5647 5647 5646 5644 5641 5639 5636 5635 5634 5632 5630 5629 5628 5627 5626 5625 5624 5622 5620 5617 5616 5615 5613 5611 5609 5607 5604 5601 5599 5598 5599 5603
5661 5661 5660 5658 5656 5654 5652 5651 5651 5650 5648 5647 5646 5647 5646 5645 5644 5643 5642 5642 5643 5643 5643 5643 5643 5644 5643 5643 5643 5643 5643 5642 5640 5638 5636 5634 5632 5631 5629 5627 5626 5625 5624 5623 5621 5620 5617 5615 5613 5611 5610 5609 5607 5605 5602 5600 5597 5596 5592 5591 5591 5592
5658 5658 5657 5655 5653 5651 5649 5648 5648 5646 5645 5644 5645 5645 5645 5644 5643 5642 5642 5642 5642 5641 5641 5642 5641 5641 5640 5640 5639 5638 5637 5636 5635 5633 5631 5630 5628 5627 5625 5623 5622 5621 5619 5617 5616 5614 5611 5608 5606 5605 5604 5602 5601 5598 5596 5594 5592 5589 5586 5585 5584 5583
5656 5655 5654 5652 5650 5649 5646 5645 5644 5643 5643 5642 5643 5643 5643 5642 5642 5642 5643 5642 5641 5641 5641 5640 5639 5637 5636 5635 5634 5633 5632 5631 5630 5628 5627 5626 5624 5623 5621 5619 5618 5616 5614 5611 5610 5607 5604 5602 5600 5599 5598 5596 5594 5592 5590 5588 5586 5583 5581 5579 5577 5576
5653 5652 5651 5650 5648 5647 5644 5643 5642 5642 5641 5641 5641 5641 5641 5641 5641 5641 5641 5640 5639 5639 5639 5637 5636 5635 5633 5631 5630 5628 5627 5627 5626 5624 5623 5621 5620 5618 5617 5615 5613 5611 5608 5605 5603 5601 5598 5596 5594 5593 5592 5590 5588 5586 5584 5582 5580 5577 5575 5573 5572 5571
5651 5650 5649 5647 5645 5644 5642 5641 5640 5640 5639 5639 5639 5639 5639 5639 5640 5640 5639 5638 5637 5637 5636 5634 5633 5631 5629 5627 5626 5625 5624 5623 5622 5620 5619 5617 5616 5614 5613 5610 5607 5604 5601 5599 5597 5594 5593 5591 5589 5587 5586 5584 5582 5579 5577 5575 5574 5572 5569 5568 5567 5566
5649 5646 5645 5644 5642 5641 5640 5639 5638 5638 5637 5637 5636 5636 5636 5637 5637 5638 5637 5636 5635 5634 5632 5631 5629 5627 5625 5623 5623 5622 5620 5618 5617 5615 5614 5613 5611 5609 5607 5604 5601 5598 5595 5593 5591 5589 5588 5586 5584 5582 5580 5578 5576 5573 5571 5569 5567 5566 5564 5562 5561 5560